Location: Unspecified
(43.3116°N, 2.0147°W)
Time: 19:25:10
(UTC+02:00)

Cosmos 2058 - Visible Passes

Search period start: 24 July 2024 00:00
Search period end: 03 August 2024 00:00
Orbit: 545 x 564 km, 82.5° (Epoch: 24 July)

Date Brightness Start Highest point End Pass type
(mag) Time Alt. Az. Time Alt. Az. Time Alt. Az.
24 Jul 5.3 01:31:10 14° W 01:32:25 15° WNW 01:34:54 10° NNW visible
24 Jul 3.1 23:52:17 46° ESE 23:52:45 49° E 23:56:42 10° NNE visible
25 Jul 5.4 01:28:04 12° W 01:29:35 14° WNW 01:31:44 10° NW visible
25 Jul 2.9 23:49:08 48° SE 23:49:51 56° E 23:53:52 10° NNE visible
26 Jul 5.6 01:25:04 10° W 01:26:46 12° WNW 01:28:28 10° NW visible
26 Jul 2.8 23:45:59 47° SSE 23:46:57 65° E 23:51:00 10° NNE visible
27 Jul 5.7 01:22:52 10° W 01:23:55 11° WNW 01:24:58 10° NW visible
27 Jul 2.7 23:42:46 42° S 23:44:02 74° E 23:48:06 10° NNE visible
28 Jul 2.7 23:39:30 36° S 23:41:07 85° E 23:45:12 10° N visible
29 Jul 2.8 23:36:12 29° S 23:38:11 85° W 23:42:17 10° N visible
30 Jul 3.0 23:32:49 23° SSW 23:35:15 74° W 23:39:20 10° N visible
31 Jul 3.2 23:29:23 18° SSW 23:32:19 65° W 23:36:22 10° N visible
01 Aug 3.4 23:25:51 13° SSW 23:29:23 56° W 23:33:22 10° N visible
02 Aug 3.7 23:22:28 10° SSW 23:26:25 49° WNW 23:30:22 10° N visible
